Location: *
(31.2983°S, 151.4094°E)
Time: 21:30:25
(UTC+00:00)

OAO 2 Rocket - Pass Details

Date: 25 August 2019
Orbit: 676 x 746 km, 35.0° (Epoch: 13 October)

Event Time Altitude Azimuth Distance (km) Brightness Sun altitude
Exits shadow 18:39:59 47° 227° (SW) 905 3.5 -21.8°
Maximum altitude 18:40:59 56° 184° (S) 813 3.5 -21.6°
Drops below altitude 10° 18:45:55 10° 105° (ESE) 2,145 6.9 -20.5°
Sets 18:48:23 0° 100° (E) 3,071 8.1 -20.0°
